NW Arkansas Airport, AR

10:09 AM CDT on July 24, 2017 (GMT -0500)
Northwest Arkansas Regional

Weather History for KXNA - October, 2014

Change the Weather History Date:

Friday, October 24, 2014

  Actual Average (KVBT) Record (KVBT)
Temperature  
Mean Temperature 60 °F -  
Max Temperature 73 °F 66 °F 84 °F (1950)
Min Temperature 48 °F 44 °F 25 °F (1981)
Degree Days  
Heating Degree Days 4    
Growing Degree Days 10 (Base 50)    
Moisture  
Dew Point 53 °F    
Average Humidity 90    
Maximum Humidity 100    
Minimum Humidity 62    
Precipitation  
Precipitation 0.00 in - - ()
Sea Level Pressure  
Sea Level Pressure 30.11 in    
Wind  
Wind Speed 3 mph (SSW)    
Max Wind Speed 13 mph    
Max Gust Speed -    
Visibility 6 miles    
Events      
Averages and records for this station are not official NWS values.
T = Trace of Precipitation, MM = Missing Value Source: NWS Daily Summary

Daily Weather History Graph

Daily Weather History Graph

Search for Another Location

Airport or City:

Trip Planner

Search our weather history database for the weather conditions in past years. The results will help you decide how hot, cold, wet, or windy it might be!

Date:

Astronomy

Oct. 24, 2014 Rise Set
Actual Time 7:32 AM CDT 6:29 PM CDT
Civil Twilight 7:06 AM CDT 6:55 PM CDT
Nautical Twilight 6:36 AM CDT 7:26 PM CDT
Astronomical Twilight 6:06 AM CDT 7:55 PM CDT
Moon 8:11 AM CDT 7:11 PM CDT
Length of Visible Light 11h 49m
Length of Day
10h 57m
New Moon, 1% of the Moon is Illuminated
Oct 24
New Moon
Oct 30
First Quarter
Nov 6
Full
Nov 14
Last Quarter
Nov 22
New

Hourly Weather History & Observations

Time (CDT) Temp. Dew Point Humidity Pressure Visibility Wind Dir Wind Speed Gust Speed Precip Events Conditions
12:27 AM 52.0 °F 51.1 °F 97% 30.13 in 0.8 mi SSE 3.5 mph - N/A   Clear
12:37 AM 51.1 °F 51.1 °F 100% 30.13 in 2.0 mi Calm Calm - N/A   Clear
12:44 AM 51.1 °F 51.1 °F 100% 30.13 in 5.0 mi Calm Calm - N/A   Clear
12:53 AM 51.1 °F 51.1 °F 100% 30.13 in 5.0 mi SSE 3.5 mph - N/A   Partly Cloudy
1:17 AM 51.1 °F 51.1 °F 100% 30.13 in 1.8 mi SE 3.5 mph - N/A   Scattered Clouds
1:29 AM 50.0 °F 50.0 °F 100% 30.13 in 0.8 mi Calm Calm - N/A   Scattered Clouds
1:50 AM 48.2 °F 48.2 °F 100% 30.13 in 1.5 mi Calm Calm - N/A   Mostly Cloudy
1:53 AM 48.9 °F 48.0 °F 97% 30.13 in 1.2 mi Calm Calm - N/A   Mostly Cloudy
2:00 AM 50.0 °F 50.0 °F 100% 30.13 in 3.0 mi Calm Calm - N/A   Mostly Cloudy
2:53 AM 50.0 °F 48.9 °F 96% 30.12 in 7.0 mi Calm Calm - N/A   Clear
3:37 AM 48.0 °F 46.9 °F 96% 30.13 in 2.5 mi Calm Calm - N/A   Clear
3:46 AM 48.9 °F 48.0 °F 97% 30.13 in 5.0 mi Calm Calm - N/A   Clear
3:53 AM 48.9 °F 48.0 °F 97% 30.12 in 6.0 mi Calm Calm - N/A   Clear
4:53 AM 48.9 °F 48.0 °F 97% 30.12 in 7.0 mi Calm Calm - N/A   Clear
5:15 AM 48.9 °F 48.0 °F 97% 30.13 in 1.8 mi Calm Calm - N/A   Clear
5:31 AM 48.0 °F 48.0 °F 100% 30.13 in 3.0 mi Calm Calm - N/A   Clear
5:53 AM 48.0 °F 46.9 °F 96% 30.12 in 6.0 mi Calm Calm - N/A   Clear
6:06 AM 48.9 °F 48.0 °F 97% 30.13 in 1.5 mi Calm Calm - N/A   Partly Cloudy
6:17 AM 48.0 °F 48.0 °F 100% 30.13 in 4.0 mi South 3.5 mph - N/A   Clear
6:53 AM 48.9 °F 48.0 °F 97% 30.12 in 4.0 mi Calm Calm - N/A   Clear
7:53 AM 48.9 °F 48.0 °F 97% 30.13 in 4.0 mi Calm Calm - N/A   Clear
8:53 AM 54.0 °F 52.0 °F 93% 30.13 in 10.0 mi SSE 4.6 mph - N/A   Clear
9:53 AM 59.0 °F 54.0 °F 83% 30.14 in 10.0 mi South 5.8 mph - N/A   Clear
10:53 AM 64.0 °F 55.9 °F 75% 30.14 in 10.0 mi SW 10.4 mph - N/A   Clear
11:53 AM 68.0 °F 57.0 °F 68% 30.13 in 10.0 mi SW 12.7 mph - N/A   Clear
12:53 PM 72.0 °F 59.0 °F 64% 30.10 in 10.0 mi SSW 8.1 mph - N/A   Clear
1:53 PM 73.9 °F 60.1 °F 62% 30.08 in 10.0 mi SW 8.1 mph - N/A   Clear
2:53 PM 73.9 °F 60.1 °F 62% 30.06 in 10.0 mi SW 9.2 mph - N/A   Clear
3:53 PM 73.0 °F 60.1 °F 64% 30.05 in 10.0 mi SW 9.2 mph - N/A   Clear
4:53 PM 72.0 °F 61.0 °F 68% 30.05 in 10.0 mi SSW 6.9 mph - N/A   Clear
5:53 PM 70.0 °F 62.1 °F 76% 30.06 in 10.0 mi SSW 3.5 mph - N/A   Clear
6:53 PM 66.9 °F 61.0 °F 81% 30.06 in 10.0 mi SSW 3.5 mph - N/A   Clear
7:53 PM 64.0 °F 60.1 °F 87% 30.06 in 10.0 mi South 4.6 mph - N/A   Clear
8:53 PM 62.1 °F 59.0 °F 90% 30.07 in 10.0 mi South 3.5 mph - N/A   Clear
9:53 PM 61.0 °F 59.0 °F 93% 30.07 in 10.0 mi SSW 5.8 mph - N/A   Clear
10:53 PM 60.1 °F 57.9 °F 93% 30.08 in 9.0 mi SSW 3.5 mph - N/A   Clear
11:53 PM 60.1 °F 57.9 °F 93% 30.06 in 7.0 mi SSW 4.6 mph - N/A   Clear